Погода в Иссях-ле-Мулине

Франция     48°49′14″N   2°15′47″E
темп.,
°C
ветер,
м/с
пор.,
м/с
влажн.,
%
обл.,
%
осадки,
мм/ч
давл.,
гПа
погр.,
м
2 марта, вт
вт201:00+7всв12790 0.0 102871
04:00+7всв12835 0.0 102736
07:00+6вюв22866 0.0 102864
10:00+8юв246911 0.0 1028227
13:00+14ююз24475 0.0 1029543
16:00+16ююз233620 0.0 1028817
19:00+13ююз124816 0.0 102823
22:00+11юв12530 0.0 102922
3 марта, ср
ср301:00+10ююв126313 0.0 103022
04:00+9юв117274 0.0 102922
07:00+8ю117779 0.0 102922
10:00+10ююз236651 0.0 1029215
13:00+14ююз245676 0.0 1029565
16:00+16юз235037 0.0 10271099
19:00+14ююз126440 0.3 1026182
22:00+12юз267764 0.2 1026270
4 марта, чт
чт401:00+11зюз268251 0.4 1025276
04:00+10зюз248379 0.0 1023219
07:00+8з258347 0.0 1022214
10:00+9з248026 0.0 1022328
13:00+12з256359 0.1 1021930
16:00+13ссз355969 0.3 10201090
19:00+10с477467 0.6 1021716
22:00+8с577494 0.0 1022720
5 марта, пт
пт501:00+6с487497 0.0 1023769
04:00+5ссв586698 0.0 1023870
07:00+3ссв586982 0.0 1025841
10:00+3св586499 0.0 1027936
13:00+4св585599 0.0 10281125
16:00+5св585089 0.0 10281264
19:00+5св595365 0.0 10291272
22:00+4св59520 0.0 10311104
6 марта, сб
сб601:00+3св59520 0.0 1032739
04:00+2св49560 0.0 1032566
07:00+1св47590 0.0 1032445
10:00+3св48470 0.0 1033727
13:00+6св57310 0.0 10331100
16:00+8св57300 0.0 10321110
19:00+6св47360 0.0 10321088
22:00+5св37460 0.0 1033540